This demonstration page uses our WeatherBlox Daily Observations layout. Learn more.

36.17497, -115.13722

Hourly Observations for January 24, 2021

Temp ( °F °C ) Dew Point ( °F °C ) Humidity (%) Winds ( mph kmh ) Pressure ( in mb ) Visibility ( mi km ) Precip ( " mm )
12:53 am 00:53 Clear 44 6.7 26 -3.3 49 49 N 3 6 29.85 1011 10 16.0934 0 0
1:53 am 01:53 Clear 43 6.1 25 -3.9 49 49 NW 9 15 29.84 1011 10 16.0934 0 0
2:53 am 02:53 Mostly Clear 43 6.1 24 -4.4 47 47 NW 10 17 29.84 1011 10 16.0934 0 0
3:53 am 03:53 Clear 40 4.4 23 -5 51 51 NW 7 11 29.84 1010 10 16.0934 0 0
4:53 am 04:53 Clear 41 5 24 -4.4 51 51 NW 9 15 29.83 1010 10 16.0934 0 0
5:53 am 05:53 Clear 43 6.1 24 -4.4 47 47 NW 10 17 29.83 1010 10 16.0934 0 0
6:53 am 06:53 Sunny 41 5 23 -5 49 49 NW 12 19 29.82 1010 10 16.0934 0 0
7:53 am 07:53 Sunny 41 5 24 -4.4 51 51 ENE 3 6 29.83 1010 10 16.0934 0 0
8:53 am 08:53 Sunny 46 7.8 24 -4.4 42 42 NNW 9 15 29.83 1010 10 16.0934 0 0
9:53 am 09:53 Sunny 50 10 24 -4.4 36 36 NW 6 9 29.84 1010 10 16.0934 0 0
10:53 am 10:53 Sunny 51 10.6 24 -4.4 35 35 Calm 29.82 1010 10 16.0934 0 0
11:53 am 11:53 Sunny 53 11.7 23 -5 31 31 ESE 5 7 29.79 1009 10 16.0934 0 0
12:53 pm 12:53 Sunny 55 12.8 23 -5 29 29 SE 8 13 29.75 1008 10 16.0934 0 0
1:53 pm 13:53 Sunny 56 13.3 22 -5.6 27 27 VRB 3 6 29.73 1007 10 16.0934 0 0
2:53 pm 14:53 Sunny 56 13.3 22 -5.6 27 27 ESE 7 11 29.72 1006 10 16.0934 0 0
3:53 pm 15:53 Sunny 58 14.4 21 -6.1 24 24 NNW 6 9 29.7 1006 10 16.0934 0 0
4:53 pm 16:53 Sunny 55 12.8 16 -8.9 21 21 WSW 10 17 29.7 1006 10 16.0934 0 0
5:53 pm 17:53 Clear 54 12.2 15 -9.4 21 21 SW 12 19 29.71 1006 10 16.0934 0 0
6:53 pm 18:53 Clear 51 10.6 15 -9.4 24 24 S 8 13 29.72 1007 10 16.0934 0 0
7:53 pm 19:53 Clear 50 10 20 -6.7 30 30 S 8 13 29.72 1006 10 16.0934 0 0
8:53 pm 20:53 Clear 49 9.4 21 -6.1 33 33 S 9 15 29.71 1006 10 16.0934 0 0
9:53 pm 21:53 Clear 50 10 25 -3.9 38 38 S 12 19 29.7 1006 10 16.0934 0 0
10:53 pm 22:53 Clear 49 9.4 27 -2.8 43 43 SSW 14 22 29.7 1006 10 16.0934 0 0
11:53 pm 23:53 Cloudy 50 10 27 -2.8 41 41 SSW 15 24 29.68 1005 10 16.0934 0 0

Powered by AerisWeather